Погода в Нюе

Россия / Республика Саха (Якутия)     60°32′01″N   116°12′38″E
темп.,
°C
ветер,
м/с
пор.,
м/с
влажн.,
%
обл.,
%
осадки,
мм/ч
давл.,
гПа
погр.,
м
3 марта, ср
ср300:00−27св11100100 0.1 101919
03:00−27ссв1299100 0.2 101941
06:00−29с12100100 0.1 102037
09:00−29с1399100 0.3 1021308
12:00−28ссв2391100 0.1 1022418
15:00−25ссв2391100 0.1 1022523
18:00−26с2395100 0.1 1024444
21:00−30ссз1199100 0.1 102719
4 марта, чт
чт400:00−33зсз119998 0.0 102919
03:00−35з119989 0.1 103119
06:00−36зюз229642 0.0 103322
09:00−35зюз249422 0.0 1035107
12:00−29з49866 0.0 1035588
15:00−25з598111 0.0 1035849
18:00−26з5108346 0.0 1036824
21:00−28з5138752 0.0 1039576
5 марта, пт
пт500:00−29з413882 0.0 1040465
03:00−30зюз312892 0.0 1040401
06:00−32юз23900 0.0 104074
09:00−33юз22870 0.0 104058
12:00−23юз27720 0.0 1037559
15:00−19юз256924 0.0 1034820
18:00−20ююв118250 0.0 103120
21:00−25ююв228534 0.0 103120
6 марта, сб
сб600:00−25ююв128551 0.0 102921
03:00−23юв119175 0.0 102725
06:00−23вюв119889 0.1 102532
09:00−21вюв119994 0.3 102368
12:00−16в1292100 0.2 1021232
15:00−13в2392100 0.4 1018277
18:00−13в2395100 0.3 1017207
21:00−15вюв1297100 0.7 101853
7 марта, вс
вс700:00−15юв1197100 0.3 101620
03:00−13юв1197100 0.6 101625
06:00−12ююв1197100 0.4 101630
09:00−9зюз31192100 0.4 1015645
12:00−7зюз5108294 0.0 1015956
15:00−5з477997 0.1 10131112
18:00−7ю1187100 0.1 101221
21:00−10юв1288100 0.1 101121